Flag for Belgium Weather past 2 weeks in Liège, Belgium

Now
72 °F

Passing clouds.


Feels Like: 77 °F
Forecast: 62 / 84 °F
Wind: 9 mph from West

Location: Bierset

Current Time: Jul 6, 2015 at 2:10:40 PM

Latest Report: Jul 6, 2015 at 1:50 PM


Visibility: N/A

Pressure: 30.18 "Hg

Humidity: 44%

Dew point: 48 °F

Location of LiègeLocation

Historic Weather in Liège — Graph

°F

Liège temperature yesterday

Maximum temperature yesterday: 82 °F (at 12:20 PM)
Minimum temperature yesterday: 63 °F (at 10:50 PM)
Average temperature yesterday: 71 °F

Past Weeks' High & Low Weather Summary

 TemperatureHumidityPressure
High99 °F (Jul 2, 2:50 PM)94% (Jun 22, 6:50 AM)30.27 "Hg (Jun 22, 6:50 AM)
Low46 °F (Jun 22, 10:50 PM)24% (Jul 2, 2:50 PM)29.71 "Hg (Jun 22, 7:20 PM)
Average69 °F63%30.09 "Hg
* Reported Jun 21 12:20 PM — Jul 6 12:50 PM, Liège, Weather by CustomWeather, © 2015

Note: Actual official high and low records may vary slightly from our data, if they occured in-between our weather recording intervals... More about our weather records

Advertising

Liège weather history for previous 24 hours

 ConditionsComfort  
Time TempWeatherWind HumidityBarometerVisibility
12:50 PM
Mon, Jul 6
73 °FPassing clouds.9 mph38%30.18 "HgN/A
12:20 PM70 °FPassing clouds.8 mph46%30.18 "HgN/A
11:50 AM72 °FPassing clouds.8 mph44%30.21 "HgN/A
11:20 AM70 °FPassing clouds.8 mph46%30.21 "HgN/A
10:50 AM68 °FPassing clouds.8 mph49%30.21 "HgN/A
10:20 AM66 °FSunny.9 mph52%30.21 "Hg10 mi
9:50 AM64 °FPassing clouds.9 mph56%30.21 "HgN/A
9:20 AM63 °FPassing clouds.8 mph59%30.21 "HgN/A
8:50 AM61 °FSunny.8 mph68%30.21 "Hg10 mi
8:20 AM61 °FSunny.9 mph68%30.21 "Hg10 mi
7:50 AM59 °FSunny.7 mph72%30.18 "Hg10 mi
7:20 AM57 °FSunny.6 mph77%30.18 "Hg10 mi
6:50 AM57 °FSunny.7 mph77%30.18 "Hg10 mi
6:20 AM55 °FClear.6 mph82%30.18 "Hg10 mi
5:50 AM55 °FClear.8 mph88%30.18 "Hg10 mi
4:50 AM57 °FClear.8 mph82%30.18 "Hg10 mi
4:20 AM57 °FClear.8 mph82%30.18 "Hg10 mi
3:50 AM57 °FClear.9 mph88%30.15 "Hg10 mi
3:20 AM57 °FClear.9 mph88%30.15 "Hg10 mi
2:50 AM57 °FPassing clouds.8 mph88%30.15 "HgN/A
2:20 AM57 °FPassing clouds.9 mph88%30.15 "HgN/A
1:50 AM59 °FPassing clouds.8 mph88%30.15 "HgN/A
1:20 AM61 °FPassing clouds.9 mph83%30.15 "HgN/A
12:50 AM63 °FPassing clouds.9 mph88%30.12 "HgN/A
12:20 AM63 °FPassing clouds.10 mph88%30.12 "HgN/A
11:50 PM
Sun, Jul 5
64 °FPassing clouds.8 mph83%30.09 "HgN/A
10:50 PM63 °FPassing clouds.7 mph88%30.07 "HgN/A
10:20 PM64 °FPassing clouds.7 mph83%30.07 "HgN/A
9:50 PM64 °FPassing clouds.6 mph83%30.07 "HgN/A
9:20 PM64 °FPassing clouds.6 mph83%30.07 "HgN/A
8:50 PM66 °FPassing clouds.6 mph78%30.04 "HgN/A
8:20 PM66 °FPassing clouds.7 mph73%30.04 "HgN/A
7:50 PM66 °FPassing clouds.5 mph78%30.01 "HgN/A
7:20 PM66 °FPassing clouds.3 mph78%30.04 "HgN/A
6:50 PM66 °FSprinkles. Scattered clouds.3 mph73%30.01 "HgN/A
6:20 PM68 °FSprinkles. Scattered clouds.7 mph64%30.04 "HgN/A
5:50 PM68 °FSprinkles. Scattered clouds.14 mph64%30.01 "HgN/A
5:20 PM68 °FScattered clouds.18 mph69%30.04 "HgN/A
4:50 PM70 °FPassing clouds.20 mph73%30.01 "HgN/A
4:20 PM73 °FScattered clouds.18 mph61%29.98 "HgN/A
3:50 PM82 °FPassing clouds.13 mph51%29.98 "HgN/A
3:20 PM81 °FPassing clouds.9 mph58%29.98 "HgN/A
2:50 PM81 °FPassing clouds.9 mph58%29.95 "HgN/A
2:20 PM79 °FPassing clouds.5 mph61%29.95 "HgN/A
Weather by CustomWeather, © 2015

See weather overviewHow to use our weather pages